Vorticity
2 6 -1 2 1 1 4 3 2 -0 0 2 5 11 33 18 7 15 4 11 10 11 29 21 63 2 -1 12 27 15 26 32 20 0 1 31 12 10 -0 4 5 2 15 27 7 -17 0
4 4 -4 3 -2 2 2 3 1 -0 1 0 5 17 34 15 8 4 3 12 4 17 30 15 18 32 -16 -6 3 11 9 48 19 19 9 17 6 20 5 7 8 7 -0 15 36 -18 17
3 2 -1 4 -2 2 1 6 3 3 -2 2 4 8 36 16 8 6 8 9 8 19 30 21 16 14 68 13 5 9 10 23 44 10 16 -19 25 1 29 0 6 8 -8 14 4 -15 2
5 2 3 7 0 4 2 7 1 3 -3 -2 6 11 43 13 4 1 20 16 6 20 16 32 33 20 21 23 18 13 1 18 47 22 15 5 13 14 24 2 4 16 3 -1 18 14 -10
5 3 6 4 2 4 5 5 -1 1 -2 3 6 17 43 17 0 -5 -6 16 4 24 8 43 9 20 36 25 12 14 13 17 56 15 -2 17 -12 -3 26 3 5 -11 14 10 9 17 -4
6 1 3 8 2 7 3 7 1 1 -2 2 1 12 47 21 3 2 -6 1 11 18 16 38 33 24 21 37 26 5 8 46 46 18 -6 15 -19 19 8 12 -2 9 -3 0 25 12 3
6 3 8 0 5 5 -0 11 4 0 -1 2 0 1 45 31 1 -1 1 0 19 9 42 1 -6 -4 1 7 41 31 19 56 33 8 14 16 -9 31 6 11 1 5 6 6 -2 17 1
8 4 7 4 8 -2 3 14 1 -1 -2 5 3 -1 39 42 6 -5 -2 11 16 5 40 27 -6 -7 8 9 26 11 36 -6 9 11 26 8 16 11 21 10 11 3 3 11 3 13 1
9 6 5 4 2 0 5 11 5 2 -6 4 4 1 13 51 20 1 -1 6 11 5 8 7 34 28 16 19 20 64 54 -10 18 17 25 -31 9 17 16 15 10 8 1 11 6 4 15
9 7 4 5 3 2 5 6 9 2 -5 4 3 1 5 41 39 5 -2 6 2 8 3 -7 18 24 35 11 33 17 2 19 27 24 18 -0 -1 21 9 16 14 3 3 7 13 7 8
10 7 4 3 1 -2 3 1 5 4 1 3 3 3 7 34 43 28 -6 -1 4 19 12 -4 3 2 24 48 64 -37 5 15 34 20 -26 3 6 15 13 15 16 2 8 3 9 11 15
7 6 3 3 2 2 5 8 12 0 -2 6 3 2 1 14 36 33 24 -2 6 -0 21 9 3 16 21 33 29 -10 17 13 -16 25 17 16 4 21 7 12 9 7 9 5 5 10 19
7 10 10 5 1 6 6 6 12 2 -3 0 4 4 0 6 20 32 33 4 1 -1 18 -0 15 10 5 24 25 9 16 -7 -14 15 3 15 23 13 12 12 11 8 7 4 1 9 8
5 9 9 4 3 3 7 5 14 6 -2 3 8 -2 3 4 15 23 40 22 1 -0 1 20 7 12 13 11 25 10 33 -1 -16 -8 14 12 16 8 9 11 12 7 4 4 0 1 -1
9 14 6 4 1 7 10 6 3 6 5 3 2 -3 7 1 6 18 31 34 17 0 -1 4 7 16 15 5 27 11 15 14 -1 2 1 16 14 9 6 3 3 6 12 12 11 6 3
8 3 6 4 1 6 4 2 4 1 6 13 3 2 4 8 3 5 51 32 18 17 -1 -2 3 3 9 9 8 15 3 15 7 -8 16 5 14 20 13 14 9 4 6 7 8 3 6
5 3 5 0 -4 -1 -1 -2 2 6 4 6 9 2 9 3 5 9 42 34 25 14 9 6 3 6 10 12 9 1 11 13 -6 3 16 -11 -1 15 14 11 9 7 8 9 8 7 6
5 8 8 6 -2 1 -3 5 6 1 10 5 7 2 7 -2 7 7 27 47 29 14 10 6 8 6 12 7 15 7 5 20 5 32 3 12 17 19 10 11 11 10 7 5 8 4 3
4 3 4 10 8 -0 9 9 -3 -2 9 4 8 2 3 -0 3 6 13 32 44 23 11 11 10 5 4 11 10 10 8 1 1 4 0 -8 -7 1 2 4 7 6 6 6 7 7 6
6 6 2 10 6 -0 1 2 -0 3 2 11 8 6 -0 4 4 5 8 22 34 24 22 12 10 7 5 3 10 10 8 4 4 4 8 3 2 5 3 2 3 9 7 8 8 10 0
5 6 3 7 9 -1 5 -0 2 5 -1 10 5 2 5 2 4 7 8 30 43 22 27 11 11 9 4 7 5 6 12 14 12 8 5 7 8 12 7 6 8 9 1 4 14 8 14
6 5 6 7 8 6 3 5 -1 7 1 15 6 2 4 2 3 6 4 16 41 26 27 20 10 12 6 1 4 7 7 5 10 21 11 9 8 10 9 4 5 2 -0 6 4 27 7
7 5 5 7 6 10 5 -2 -4 -6 5 12 4 1 3 2 3 7 5 6 28 38 20 26 17 9 13 8 2 4 6 9 9 9 18 16 11 7 12 15 15 5 10 7 8 12 18
5 10 5 6 5 6 2 -1 1 2 3 15 2 6 4 1 4 8 7 13 35 26 20 15 29 16 8 13 12 3 3 5 6 11 5 7 11 10 10 8 8 10 16 11 11 9 6
-6 7 3 1 6 4 2 2 7 11 3 17 3 7 3 3 5 6 7 10 25 28 23 16 23 23 13 10 10 11 11 5 7 6 8 9 9 10 10 11 10 12 8 9 7 9 11
-9 14 4 -2 5 1 -2 3 4 4 6 14 7 3 5 -0 6 4 7 7 18 34 30 25 18 23 25 7 9 11 7 7 9 6 7 7 7 7 7 8 7 8 13 14 5 7 8
-0 3 7 -0 3 6 2 1 7 6 3 12 10 1 5 6 3 5 8 7 15 26 22 30 25 17 27 25 6 6 12 10 9 8 10 8 9 10 10 11 8 12 13 13 8 6 6
-9 3 -6 1 3 4 5 2 -7 7 2 15 8 3 7 5 4 5 8 8 10 16 21 16 26 28 25 17 26 10 5 10 11 9 15 13 10 12 13 12 12 12 14 13 15 9 7
15 6 3 3 1 3 0 4 1 6 5 12 12 8 6 5 1 7 6 8 13 7 26 18 14 29 25 20 17 16 7 8 8 9 10 12 10 9 8 8 8 8 10 13 14 12 10
Height
5809 5806 5802 5796 5790 5782 5774 5765 5754 5743 5730 5715 5702 5687 5674 5662 5651 5638 5626 5613 5600 5587 5575 5566 5561 5562 5563 5567 5571 5577 5583 5592 5604 5620 5632 5643 5655 5666 5679 5692 5704 5714 5722 5730 5734 5746 5755
5805 5802 5797 5793 5787 5779 5772 5763 5753 5740 5729 5715 5701 5686 5671 5660 5648 5635 5623 5610 5598 5585 5572 5564 5559 5559 5560 5563 5568 5574 5580 5585 5595 5611 5624 5637 5651 5662 5673 5686 5698 5708 5716 5724 5732 5741 5749
5801 5798 5794 5789 5783 5776 5769 5762 5750 5738 5726 5714 5699 5683 5668 5658 5647 5635 5622 5610 5596 5583 5570 5562 5556 5555 5556 5559 5563 5568 5574 5579 5587 5604 5621 5636 5649 5657 5670 5681 5693 5703 5710 5717 5726 5735 5743
5796 5793 5791 5785 5779 5773 5767 5758 5748 5737 5725 5713 5697 5683 5667 5656 5647 5636 5622 5608 5595 5581 5569 5560 5555 5552 5551 5553 5557 5564 5570 5575 5583 5603 5618 5632 5647 5655 5666 5676 5688 5697 5704 5712 5722 5729 5738
5792 5789 5787 5782 5777 5771 5764 5756 5746 5736 5724 5710 5696 5682 5666 5655 5648 5637 5624 5610 5597 5582 5570 5559 5555 5552 5550 5551 5555 5561 5567 5573 5581 5597 5614 5629 5644 5652 5663 5673 5682 5690 5702 5711 5719 5728 5735
5788 5785 5783 5779 5774 5768 5761 5754 5745 5734 5723 5710 5697 5682 5666 5655 5648 5639 5627 5614 5600 5587 5573 5564 5559 5558 5554 5553 5555 5560 5565 5572 5583 5597 5614 5627 5640 5647 5660 5670 5682 5692 5701 5709 5716 5725 5733
5784 5781 5779 5775 5771 5765 5759 5751 5744 5733 5722 5709 5696 5683 5667 5655 5648 5641 5630 5619 5607 5595 5581 5573 5568 5565 5561 5556 5555 5559 5565 5572 5584 5599 5612 5628 5642 5649 5662 5671 5679 5690 5698 5706 5714 5720 5724
5779 5778 5775 5772 5768 5762 5756 5749 5742 5733 5722 5709 5695 5683 5668 5656 5647 5643 5633 5624 5612 5603 5590 5580 5575 5571 5568 5564 5563 5565 5569 5579 5587 5600 5615 5631 5640 5648 5658 5668 5678 5687 5694 5702 5710 5715 5719
5775 5774 5771 5768 5764 5759 5754 5747 5739 5731 5722 5709 5696 5685 5671 5657 5648 5644 5637 5629 5618 5608 5595 5584 5577 5572 5571 5571 5569 5569 5577 5587 5599 5608 5621 5632 5641 5648 5657 5666 5675 5684 5692 5699 5707 5712 5716
5771 5769 5767 5765 5761 5757 5751 5745 5737 5729 5720 5708 5696 5685 5673 5660 5650 5644 5639 5632 5624 5615 5604 5594 5586 5580 5575 5575 5577 5581 5588 5596 5603 5612 5624 5635 5643 5650 5656 5665 5674 5683 5691 5697 5703 5709 5713
5766 5765 5763 5761 5758 5754 5748 5742 5736 5728 5720 5709 5697 5687 5676 5662 5650 5643 5640 5634 5628 5621 5614 5605 5597 5591 5585 5583 5585 5589 5595 5602 5611 5621 5632 5641 5646 5651 5657 5664 5673 5683 5690 5696 5702 5706 5710
5761 5760 5758 5756 5754 5751 5745 5739 5733 5726 5718 5709 5698 5688 5677 5666 5652 5643 5640 5637 5632 5628 5620 5614 5607 5602 5599 5599 5600 5602 5604 5612 5621 5630 5635 5641 5646 5652 5658 5665 5674 5682 5688 5693 5698 5703 5706
5755 5755 5754 5752 5750 5747 5742 5736 5731 5723 5716 5708 5698 5688 5678 5667 5657 5645 5640 5637 5636 5631 5627 5622 5616 5611 5610 5611 5614 5614 5617 5621 5628 5633 5639 5643 5647 5653 5659 5666 5674 5680 5685 5690 5696 5698 5701
5749 5750 5749 5748 5746 5743 5739 5733 5727 5721 5714 5707 5698 5688 5679 5668 5658 5648 5639 5637 5636 5633 5631 5627 5624 5620 5619 5621 5624 5625 5626 5628 5633 5637 5641 5645 5650 5655 5660 5666 5672 5677 5683 5688 5691 5695 5700
5741 5744 5744 5744 5742 5739 5735 5730 5724 5718 5711 5706 5697 5687 5679 5669 5660 5649 5639 5633 5635 5634 5634 5632 5630 5627 5626 5627 5629 5631 5633 5635 5638 5642 5646 5649 5652 5656 5661 5667 5673 5677 5681 5686 5689 5693 5697
5734 5737 5738 5738 5738 5735 5731 5726 5721 5715 5709 5704 5696 5687 5678 5669 5659 5649 5640 5633 5632 5631 5633 5632 5632 5630 5630 5631 5632 5634 5635 5639 5641 5644 5647 5651 5654 5659 5663 5667 5671 5675 5681 5683 5687 5690 5692
5728 5730 5732 5732 5733 5731 5727 5722 5718 5712 5706 5701 5695 5686 5678 5669 5660 5649 5641 5633 5628 5628 5630 5632 5631 5631 5631 5632 5633 5636 5638 5641 5643 5645 5647 5650 5655 5659 5662 5664 5669 5674 5677 5680 5684 5685 5686
5720 5723 5725 5725 5727 5726 5723 5719 5715 5709 5703 5699 5693 5685 5677 5668 5661 5647 5638 5631 5627 5627 5628 5628 5629 5630 5629 5631 5632 5634 5637 5639 5643 5645 5648 5650 5652 5656 5660 5663 5666 5669 5672 5675 5677 5682 5684
5713 5715 5717 5718 5720 5720 5718 5715 5711 5706 5700 5696 5691 5683 5676 5668 5659 5648 5638 5631 5626 5622 5623 5625 5626 5627 5628 5630 5632 5632 5634 5638 5640 5643 5646 5649 5652 5655 5657 5661 5662 5665 5670 5672 5674 5676 5677
5705 5708 5710 5711 5713 5714 5713 5710 5707 5702 5696 5692 5687 5682 5674 5667 5658 5648 5637 5628 5622 5619 5620 5620 5622 5624 5626 5627 5629 5631 5632 5634 5637 5639 5641 5644 5647 5651 5654 5657 5659 5662 5664 5667 5669 5669 5671
5698 5701 5702 5703 5705 5707 5708 5705 5702 5698 5692 5688 5684 5678 5673 5666 5658 5647 5636 5624 5618 5615 5615 5617 5619 5620 5623 5625 5626 5628 5630 5631 5633 5635 5637 5641 5644 5646 5648 5651 5653 5656 5658 5660 5661 5663 5663
5690 5693 5695 5697 5699 5701 5701 5700 5696 5694 5689 5684 5680 5675 5669 5663 5655 5646 5636 5624 5615 5611 5610 5612 5615 5616 5618 5620 5622 5624 5626 5628 5630 5632 5634 5637 5639 5641 5644 5646 5648 5651 5653 5655 5656 5656 5657
5681 5685 5688 5690 5691 5693 5695 5694 5691 5689 5685 5680 5675 5671 5666 5661 5653 5644 5635 5624 5614 5607 5607 5606 5608 5610 5612 5615 5617 5619 5622 5624 5627 5629 5631 5633 5635 5637 5640 5642 5644 5647 5650 5649 5650 5651 5651
5673 5677 5681 5682 5685 5686 5687 5688 5686 5684 5680 5677 5672 5668 5663 5658 5650 5642 5631 5621 5611 5606 5604 5602 5602 5604 5606 5609 5612 5615 5617 5620 5622 5624 5627 5629 5631 5632 5636 5637 5639 5642 5643 5642 5643 5645 5645
5664 5669 5673 5676 5678 5679 5679 5681 5680 5678 5675 5672 5669 5666 5661 5655 5649 5640 5630 5620 5610 5605 5602 5599 5597 5598 5600 5603 5605 5608 5612 5615 5618 5620 5621 5624 5626 5627 5628 5631 5633 5635 5636 5636 5637 5638 5638
5656 5661 5665 5669 5671 5673 5673 5675 5674 5673 5671 5668 5665 5662 5657 5652 5646 5638 5629 5619 5609 5603 5598 5596 5592 5593 5593 5595 5599 5602 5606 5609 5613 5615 5617 5619 5620 5623 5624 5624 5626 5628 5628 5629 5630 5631 5632
5648 5653 5658 5662 5664 5666 5667 5668 5668 5667 5667 5664 5662 5659 5655 5650 5644 5638 5628 5618 5609 5601 5596 5591 5590 5588 5588 5591 5594 5598 5600 5604 5607 5609 5612 5613 5615 5617 5618 5618 5622 5622 5622 5623 5625 5629 5626
5639 5645 5650 5654 5657 5659 5661 5662 5663 5661 5662 5660 5658 5655 5652 5647 5642 5636 5627 5618 5608 5600 5593 5590 5587 5585 5585 5587 5589 5592 5596 5598 5601 5604 5605 5608 5610 5611 5613 5614 5617 5617 5617 5618 5619 5620 5621
5630 5636 5642 5646 5650 5653 5653 5655 5658 5656 5656 5655 5654 5651 5647 5644 5638 5633 5624 5617 5608 5600 5592 5588 5585 5582 5580 5582 5584 5587 5591 5593 5595 5598 5600 5603 5605 5607 5609 5610 5610 5610 5611 5612 5613 5614 5615